DW2489 Weather Reports


time (UTC)temp
C
wind
direction
speed
KPH
gust
KPH
rain 1hr
cm
rain 24hr
cm
rain mn
cm
humidity
%
barometer
mb
20260503220722 13 255 14.5 32.2 0.00 0.00 0.00 1007.5
20260503220219 14 272 14.5 32.2 0.00 0.00 0.00 1007.5
20260503215718 14 266 9.7 32.2 0.00 0.00 0.00 1007.5
20260503215216 14 0 0.0 25.7 0.00 0.00 0.00 1007.5
20260503214714 14 266 9.7 24.1 0.00 0.00 0.00 1007.5
20260503214141 14 217 11.3 30.6 0.00 0.00 0.00 1007.5
20260503213639 14 273 8.0 40.2 0.00 0.00 0.00 1007.5
20260503213138 14 280 4.8 40.2 0.00 0.00 0.00 1007.5
20260503212637 14 267 12.9 35.4 0.00 0.00 0.00 1007.5
20260503212136 14 284 11.3 35.4 0.00 0.00 0.00 1007.5
20260503211634 14 249 11.3 35.4 0.00 0.00 0.00 1007.5
20260503211133 13 252 12.9 24.1 0.00 0.00 0.00 1007.5
20260503210632 13 295 6.4 24.1 0.00 0.00 0.00 1007.5
20260503210130 13 251 12.9 24.1 0.00 0.00 0.00 1007.5
20260503205627 13 265 4.8 20.9 0.00 0.00 0.00 1007.5
20260503205125 13 275 4.8 20.9 0.00 0.00 0.00 1007.8
20260503204624 13 290 6.4 20.9 0.00 0.00 0.00 1007.8
20260503204123 13 305 8.0 19.3 0.00 0.00 0.00 1007.8
20260503203621 13 264 1.6 11.3 0.00 0.00 0.00 1007.8
20260503203121 12 259 6.4 16.1 0.00 0.00 0.00 1007.8
20260503202619 12 1 3.2 16.1 0.00 0.00 0.00 1008.1
20260503202117 12 246 4.8 16.1 0.00 0.00 0.00 1007.8
20260503201616 12 356 4.8 16.1 0.00 0.00 0.00 1008.1
20260503201114 12 309 1.6 16.1 0.00 0.00 0.00 1008.1
20260503200612 12 303 6.4 16.1 0.00 0.00 0.00 1008.1
20260503200111 12 352 6.4 16.1 0.00 0.00 0.00 1008.1
20260503195609 13 331 9.7 19.3 0.00 0.00 0.00 1008.1
20260503195108 12 2 9.7 19.3 0.00 0.00 0.00 1008.1
20260503194535 12 319 8.0 20.9 0.00 0.00 0.00 1008.1
20260503194034 12 283 8.0 20.9 0.00 0.00 0.00 1008.5
20260503193533 12 290 6.4 16.1 0.00 0.00 0.00 1008.5
20260503193032 12 262 3.2 20.9 0.00 0.00 0.00 1008.5
20260503192531 12 295 6.4 29.0 0.00 0.00 0.00 1008.8
20260503192030 12 248 14.5 29.0 0.00 0.00 0.00 1008.8
20260503191527 12 287 8.0 30.6 0.00 0.00 0.00 1008.8
20260503190923 12 12 3.2 30.6 0.00 0.00 0.00 1008.8
20260503190422 12 301 11.3 30.6 0.00 0.00 0.00 1008.8
20260503185919 12 264 17.7 29.0 0.00 0.00 0.00 1008.8
20260503185418 12 313 8.0 24.1 0.00 0.00 0.00 1008.8
20260503184917 12 330 8.0 24.1 0.00 0.00 0.00 1008.8
20260503184415 12 345 4.8 24.1 0.00 0.00 0.00 1009.1
20260503183914 12 299 4.8 24.1 0.00 0.00 0.00 1009.1
20260503183413 12 272 12.9 24.1 0.00 0.00 0.00 1009.1
20260503182912 12 284 3.2 30.6 0.00 0.00 0.00 1009.1
20260503182410 12 360 9.7 30.6 0.00 0.00 0.00 1009.1
20260503181909 11 257 8.0 30.6 0.00 0.00 0.00 1009.1
20260503181408 11 260 11.3 25.7 0.00 0.00 0.00 1009.1
20260503180907 11 287 11.3 25.7 0.00 0.00 0.00 1009.1
20260503180334 11 266 9.7 24.1 0.00 0.00 0.00 1009.1
20260503175832 11 354 4.8 20.9 0.00 0.00 0.00 1009.5
20260503175331 11 241 4.8 24.1 0.00 0.00 0.00 1009.5
20260503174829 11 322 6.4 24.1 0.00 0.00 0.00 1009.1
20260503174328 10 262 3.2 24.1 0.00 0.00 0.00 1009.5
20260503173827 10 269 8.0 24.1 0.00 0.00 0.00 1009.5
20260503173325 11 279 11.3 24.1 0.00 0.00 0.00 1009.5
20260503172824 11 281 8.0 30.6 0.00 0.00 0.00 1009.5
20260503172321 11 358 8.0 30.6 0.00 0.00 0.00 1009.5
20260503171819 11 358 9.7 30.6 0.00 0.00 0.00 1009.5
20260503171318 11 327 6.4 24.1 0.00 0.00 0.00 1009.5
20260503170745 11 304 9.7 35.4 0.00 0.00 0.00 1009.5
20260503170244 11 50 4.8 35.4 0.00 0.00 0.00 1009.5
20260503150800 10 314 8.0 19.3 0.00 0.00 0.00 1010.2
20260503150155 10 272 9.7 24.1 0.00 0.00 0.00 1010.2
20260503140133 10 4 11.3 25.7 0.00 0.00 0.00 1009.8
20260503131008 8 13 4.8 9.7 0.00 0.00 0.00 1009.9
20260503130508 8 16 4.8 14.5 0.00 0.00 0.00 1009.9
20260503110507 4 46 0.0 3.2 0.00 0.00 0.00 1009.4
20260503090506 2 239 0.0 4.8 0.00 0.00 0.00 1009.1
20260503081506 2 272 0.0 3.2 0.00 0.00 0.00 1009.6
20260503081007 2 272 0.0 0.0 0.00 0.00 0.00 1009.6
20260503080506 2 272 0.0 0.0 0.00 0.00 0.00 1009.7
20260503072506 3 269 0.0 4.8 0.00 0.00 0.00 1009.8
20260503072006 3 304 0.0 4.8 0.00 0.00 0.00 1009.8
20260503071536 3 312 0.0 4.8 0.00 0.00 0.00 1009.9
20260503071006 3 312 0.0 6.4 0.00 0.00 0.00 1009.9
20260503070507 3 312 3.2 6.4 0.00 0.00 0.00 1009.9
20260503055005 2 218 0.0 3.2 0.00 0.00 0.00 1010.5
20260503054005 3 212 0.0 0.0 0.00 0.00 0.00 1010.4
20260503053505 3 281 0.0 4.8 0.00 0.00 0.00 1010.4
20260503053005 3 273 0.0 4.8 0.00 0.00 0.00 1010.5
20260503052505 3 273 3.2 3.2 0.00 0.00 0.00 1010.4
20260503052005 3 273 0.0 0.0 0.00 0.00 0.00 1010.6
20260503051505 3 273 0.0 0.0 0.00 0.00 0.00 1010.6
20260503051005 3 273 0.0 3.2 0.00 0.00 0.00 1010.7
20260503050505 3 273 0.0 4.8 0.00 0.00 0.00 1010.6
20260503050034 3 273 0.0 4.8 0.00 0.00 0.00 1010.7
20260503045505 3 273 0.0 4.8 0.00 0.00 0.00 1010.8
20260503045005 3 344 0.0 0.0 0.00 0.03 0.00 1010.8
20260503044506 3 344 0.0 0.0 0.00 0.05 0.00 1010.8
20260503044004 3 344 0.0 0.0 0.00 0.05 0.00 1010.9
20260503043504 3 291 0.0 0.0 0.00 0.05 0.00 1010.9
20260503043005 3 336 0.0 4.8 0.00 0.05 0.00 1010.9
20260503042504 3 276 0.0 4.8 0.00 0.05 0.00 1010.9
20260503042019 3 276 3.2 4.8 0.00 0.05 0.00 1010.9
20260503041504 4 276 3.2 4.8 0.00 0.05 0.00 1010.9
20260503041004 4 276 0.0 4.8 0.00 0.05 0.00 1011.0
20260503040505 4 276 0.0 6.4 0.00 0.05 0.00 1010.9
20260503040004 4 276 0.0 9.7 0.00 0.05 0.00 1011.2
20260503035504 5 276 0.0 9.7 0.00 0.05 0.05 1011.2
20260503035004 5 284 4.8 11.3 0.00 0.05 0.05 1011.3
20260503034504 5 294 0.0 11.3 0.00 0.05 0.05 1011.3
20260503034004 5 287 0.0 9.7 0.00 0.05 0.05 1011.3
20260503033533 5 306 6.4 6.4 0.00 0.05 0.05 1011.1
20260503033034 5 327 0.0 4.8 0.00 0.05 0.05 1011.1
20260503032504 5 283 0.0 3.2 0.00 0.05 0.05 1011.0
20260503032004 5 236 0.0 3.2 0.00 0.05 0.05 1011.1
20260503031519 5 235 0.0 3.2 0.00 0.05 0.05 1011.1
20260503031004 5 235 0.0 4.8 0.00 0.05 0.05 1011.2
20260503030520 6 235 0.0 4.8 0.00 0.05 0.05 1011.3
20260503030004 6 235 0.0 4.8 0.00 0.05 0.05 1011.2
20260503025505 6 235 0.0 4.8 0.00 0.05 0.05 1011.3
20260503025003 6 235 3.2 4.8 0.00 0.05 0.05 1011.3
20260503024503 6 235 0.0 6.4 0.00 0.05 0.05 1011.3
20260503024004 6 235 3.2 9.7 0.00 0.05 0.05 1011.3
20260503023503 6 235 3.2 9.7 0.00 0.05 0.05 1011.3
20260503023004 6 235 0.0 4.8 0.00 0.05 0.05 1011.4
20260503022504 6 235 0.0 4.8 0.00 0.05 0.05 1011.5
20260503022004 6 235 0.0 0.0 0.00 0.05 0.05 1011.5
20260503021503 6 235 0.0 4.8 0.00 0.05 0.05 1011.6
20260503021018 6 235 0.0 9.7 0.00 0.05 0.05 1011.6
20260503020503 6 235 3.2 9.7 0.00 0.05 0.05 1011.6
20260503020003 6 235 0.0 6.4 0.00 0.05 0.05 1011.7
20260503015503 6 294 0.0 6.4 0.00 0.05 0.05 1011.6
20260503015003 6 293 3.2 11.3 0.00 0.05 0.05 1011.6
20260503014533 6 287 3.2 11.3 0.00 0.05 0.05 1011.6
20260503014004 6 298 0.0 9.7 0.00 0.05 0.05 1011.7
20260503013503 6 297 0.0 9.7 0.00 0.05 0.05 1011.7
20260503013004 6 294 9.7 11.3 0.00 0.05 0.05 1011.6
20260503012503 6 308 9.7 11.3 0.00 0.05 0.05 1011.6
20260503012003 6 254 6.4 9.7 0.00 0.05 0.05 1011.6
20260503011503 6 295 4.8 9.7 0.00 0.05 0.05 1011.6
20260503011003 6 286 0.0 9.7 0.00 0.05 0.05 1011.7
20260503010503 7 286 0.0 6.4 0.00 0.05 0.05 1011.6
20260503010003 7 286 4.8 9.7 0.00 0.05 0.05 1011.5
20260503005532 7 286 0.0 9.7 0.00 0.05 0.05 1011.4
20260503005003 7 286 9.7 9.7 0.00 0.05 0.05 1011.4
20260503004503 7 253 4.8 6.4 0.00 0.05 0.05 1011.4
20260503004003 7 253 3.2 6.4 0.00 0.05 0.05 1011.5
20260503003503 7 253 4.8 9.7 0.00 0.05 0.05 1011.4
20260503003003 7 238 3.2 9.7 0.00 0.05 0.05 1011.4
20260503002503 7 274 3.2 6.4 0.00 0.05 0.05 1011.3
20260503002004 7 274 4.8 9.7 0.00 0.05 0.05 1011.3
20260503001503 8 274 4.8 11.3 0.00 0.05 0.05 1011.3
20260503001004 8 274 4.8 11.3 0.00 0.05 0.05 1011.3
20260503000532 8 259 0.0 14.5 0.00 0.05 0.05 1011.2
20260503000048 8 257 9.7 14.5 0.00 0.05 0.05 1011.3
20260502235502 8 265 4.8 16.1 0.00 0.05 0.05 1011.2
20260502235102 8 259 6.4 20.9 0.00 0.05 0.05 1011.2
20260502234504 8 253 0.0 20.9 0.00 0.05 0.05 1011.2
20260502234017 8 290 19.3 19.3 0.00 0.05 0.05 1011.1
20260502233532 9 264 3.2 19.3 0.00 0.05 0.05 1011.2
20260502233002 9 273 0.0 14.5 0.00 0.05 0.05 1011.0
20260502232502 9 285 6.4 14.5 0.00 0.05 0.05 1011.0
20260502232032 9 253 4.8 11.3 0.00 0.05 0.05 1011.0
20260502231502 10 248 0.0 11.3 0.00 0.05 0.05 1010.9
20260502231002 10 293 4.8 20.9 0.00 0.05 0.05 1010.9
20260502230532 10 311 0.0 20.9 0.00 0.05 0.05 1011.0
20260502230002 10 267 20.9 20.9 0.00 0.05 0.05 1010.9
20260502225502 10 267 4.8 30.6 0.00 0.05 0.05 1011.0
20260502225032 10 273 9.7 30.6 0.00 0.05 0.05 1010.9
20260502224533 10 284 11.3 29.0 0.00 0.05 0.05 1010.8
20260502224002 10 270 6.4 29.0 0.00 0.05 0.05 1010.7
20260502223502 10 350 4.8 25.7 0.00 0.05 0.05 1010.6
20260502223032 10 254 6.4 29.0 0.00 0.05 0.05 1010.8
20260502222532 11 352 0.0 29.0 0.00 0.05 0.05 1010.7
20260502222031 11 267 6.4 24.1 0.00 0.05 0.05 1010.5
20260502221533 11 267 4.8 24.1 0.00 0.05 0.05 1010.5
20260502221031 11 265 4.8 24.1 0.00 0.05 0.05 1010.5